Stündliche Wetter Laatzen

Heute, 16 Mai, Sonntag

Zeit Temperatur Niederschläge Wind Luftdruck Luftfeuchtigkeit
00:00 +8°C° 0 mm 2 m/S 744 mmHg 94%
01:00 +7°C° 0 mm 2 m/S 744 mmHg 94%
02:00 +7°C° 0.3 mm 3 m/S 744 mmHg 95%
03:00 +7°C° 0.3 mm 3 m/S 744 mmHg 95%
04:00 +7°C° 0.3 mm 3 m/S 744 mmHg 95%
05:00 +7°C° 0.1 mm 4 m/S 744 mmHg 94%
06:00 +7°C° 0.1 mm 4 m/S 745 mmHg 92%
07:00 +8°C° 0.1 mm 4 m/S 745 mmHg 91%
08:00 +10°C° 0.4 mm 4 m/S 745 mmHg 88%
09:00 +10°C° 0.4 mm 4 m/S 745 mmHg 85%
10:00 +11°C° 0.4 mm 4 m/S 745 mmHg 82%
11:00 +12°C° 0.3 mm 5 m/S 745 mmHg 76%
12:00 +13°C° 0.3 mm 5 m/S 745 mmHg 69%
13:00 +15°C° 0.3 mm 5 m/S 745 mmHg 62%
14:00 +15°C° 0.4 mm 5 m/S 744 mmHg 62%
15:00 +15°C° 0.4 mm 5 m/S 744 mmHg 62%
16:00 +15°C° 0.4 mm 4 m/S 744 mmHg 63%
17:00 +14°C° 0.4 mm 4 m/S 744 mmHg 70%
18:00 +12°C° 0.4 mm 3 m/S 744 mmHg 77%
19:00 +12°C° 0.4 mm 2 m/S 744 mmHg 84%
20:00 +10°C° 0 mm 2 m/S 744 mmHg 85%
21:00 +9°C° 0 mm 2 m/S 744 mmHg 87%
22:00 +8°C° 0 mm 2 m/S 744 mmHg 88%
23:00 +8°C° 0 mm 2 m/S 744 mmHg 89%

Morgen, 17 Mai, Montag

Zeit Temperatur Niederschläge Wind Luftdruck Luftfeuchtigkeit
00:00 +7°C° 0 mm 2 m/S 744 mmHg 90%
01:00 +7°C° 0 mm 2 m/S 744 mmHg 90%
02:00 +7°C° 0 mm 2 m/S 744 mmHg 91%
03:00 +6°C° 0 mm 2 m/S 744 mmHg 91%
04:00 +6°C° 0 mm 2 m/S 744 mmHg 92%
05:00 +7°C° 0 mm 2 m/S 745 mmHg 90%
06:00 +8°C° 0 mm 2 m/S 745 mmHg 88%
07:00 +9°C° 0 mm 2 m/S 746 mmHg 86%
08:00 +11°C° 0.2 mm 3 m/S 746 mmHg 83%
09:00 +12°C° 0.2 mm 3 m/S 746 mmHg 79%
10:00 +13°C° 0.2 mm 4 m/S 746 mmHg 75%
11:00 +13°C° 0.3 mm 4 m/S 746 mmHg 76%
12:00 +13°C° 0.3 mm 4 m/S 746 mmHg 76%
13:00 +13°C° 0.3 mm 4 m/S 746 mmHg 77%
14:00 +13°C° 0.5 mm 4 m/S 746 mmHg 79%
15:00 +13°C° 0.5 mm 4 m/S 746 mmHg 80%
16:00 +13°C° 0.5 mm 4 m/S 746 mmHg 82%
17:00 +12°C° 0.2 mm 4 m/S 747 mmHg 85%
18:00 +11°C° 0.2 mm 4 m/S 747 mmHg 88%
19:00 +10°C° 0.2 mm 3 m/S 747 mmHg 91%
20:00 +9°C° 0 mm 3 m/S 747 mmHg 93%
21:00 +9°C° 0 mm 3 m/S 748 mmHg 94%
22:00 +8°C° 0 mm 2 m/S 748 mmHg 96%
23:00 +8°C° 0 mm 2 m/S 748 mmHg 96%

übermorgen, 18 Mai, Dienstag

Zeit Temperatur Niederschläge Wind Luftdruck Luftfeuchtigkeit
00:00 +7°C° 0 mm 2 m/S 749 mmHg 97%
01:00 +7°C° 0 mm 2 m/S 749 mmHg 97%
02:00 +7°C° 0 mm 2 m/S 749 mmHg 97%
03:00 +6°C° 0 mm 2 m/S 749 mmHg 97%
04:00 +6°C° 0 mm 2 m/S 749 mmHg 97%
05:00 +7°C° 0 mm 2 m/S 750 mmHg 96%
06:00 +8°C° 0 mm 2 m/S 750 mmHg 94%
07:00 +9°C° 0 mm 3 m/S 750 mmHg 93%
08:00 +10°C° 0.1 mm 3 m/S 750 mmHg 91%
09:00 +10°C° 0.1 mm 3 m/S 750 mmHg 90%
10:00 +11°C° 0.1 mm 3 m/S 750 mmHg 88%
11:00 +10°C° 0.4 mm 3 m/S 751 mmHg 90%
12:00 +10°C° 0.4 mm 3 m/S 751 mmHg 91%
13:00 +10°C° 0.4 mm 3 m/S 751 mmHg 93%
14:00 +11°C° 0.3 mm 4 m/S 751 mmHg 90%
15:00 +11°C° 0.3 mm 4 m/S 751 mmHg 87%
16:00 +12°C° 0.3 mm 4 m/S 751 mmHg 85%
17:00 +11°C° 0.4 mm 4 m/S 751 mmHg 87%
18:00 +11°C° 0.4 mm 3 m/S 752 mmHg 90%
19:00 +11°C° 0.4 mm 3 m/S 752 mmHg 92%
20:00 +10°C° 0.3 mm 3 m/S 752 mmHg 93%
21:00 +9°C° 0.3 mm 3 m/S 753 mmHg 94%
22:00 +8°C° 0.3 mm 3 m/S 753 mmHg 96%
23:00 +8°C° 0 mm 3 m/S 754 mmHg 96%

19 Mai, Mittwoch

Zeit Temperatur Niederschläge Wind Luftdruck Luftfeuchtigkeit
00:00 +7°C° 0 mm 2 m/S 754 mmHg 96%
01:00 +6°C° 0 mm 2 m/S 754 mmHg 97%
02:00 +6°C° 0 mm 2 m/S 755 mmHg 96%
03:00 +5°C° 0 mm 2 m/S 755 mmHg 95%
04:00 +4°C° 0 mm 2 m/S 755 mmHg 94%
05:00 +5°C° 0 mm 3 m/S 755 mmHg 93%
06:00 +7°C° 0 mm 3 m/S 755 mmHg 92%
07:00 +7°C° 0 mm 4 m/S 755 mmHg 90%
08:00 +8°C° 0.1 mm 4 m/S 755 mmHg 86%
09:00 +9°C° 0.1 mm 5 m/S 755 mmHg 81%
10:00 +11°C° 0.1 mm 6 m/S 755 mmHg 77%
11:00 +11°C° 0.3 mm 6 m/S 755 mmHg 71%
12:00 +13°C° 0.3 mm 6 m/S 755 mmHg 66%
13:00 +14°C° 0.3 mm 6 m/S 755 mmHg 61%
14:00 +14°C° 0.2 mm 6 m/S 755 mmHg 62%
15:00 +14°C° 0.2 mm 6 m/S 755 mmHg 64%
16:00 +14°C° 0.2 mm 6 m/S 755 mmHg 65%
17:00 +13°C° 0.4 mm 5 m/S 755 mmHg 72%
18:00 +12°C° 0.4 mm 4 m/S 755 mmHg 78%
19:00 +11°C° 0.4 mm 3 m/S 755 mmHg 85%
20:00 +9°C° 0 mm 3 m/S 755 mmHg 87%
21:00 +8°C° 0 mm 2 m/S 756 mmHg 89%
22:00 +7°C° 0 mm 2 m/S 756 mmHg 91%
23:00 +7°C° 0 mm 2 m/S 756 mmHg 92%

20 Mai, Donnerstag

Zeit Temperatur Niederschläge Wind Luftdruck Luftfeuchtigkeit
00:00 +6°C° 0 mm 2 m/S 756 mmHg 93%
01:00 +5°C° 0 mm 2 m/S 756 mmHg 93%
02:00 +5°C° 0 mm 2 m/S 756 mmHg 94%
03:00 +4°C° 0 mm 2 m/S 756 mmHg 94%
04:00 +4°C° 0 mm 2 m/S 756 mmHg 94%
05:00 +5°C° 0 mm 2 m/S 757 mmHg 91%
06:00 +6°C° 0 mm 2 m/S 757 mmHg 88%
07:00 +8°C° 0 mm 2 m/S 757 mmHg 86%
08:00 +9°C° 0 mm 3 m/S 757 mmHg 79%
09:00 +11°C° 0 mm 3 m/S 757 mmHg 73%
10:00 +12°C° 0 mm 4 m/S 758 mmHg 66%
11:00 +13°C° 0.1 mm 4 m/S 758 mmHg 64%
12:00 +14°C° 0.1 mm 5 m/S 758 mmHg 62%
13:00 +15°C° 0.1 mm 5 m/S 757 mmHg 60%
14:00 +14°C° 0.3 mm 5 m/S 757 mmHg 63%
15:00 +14°C° 0.3 mm 5 m/S 757 mmHg 66%
16:00 +14°C° 0.3 mm 5 m/S 757 mmHg 69%
17:00 +13°C° 0.1 mm 5 m/S 757 mmHg 72%
18:00 +13°C° 0.1 mm 4 m/S 757 mmHg 76%
19:00 +12°C° 0.1 mm 3 m/S 758 mmHg 80%
20:00 +10°C° 0 mm 3 m/S 758 mmHg 83%
21:00 +9°C° 0 mm 2 m/S 758 mmHg 87%
22:00 +9°C° 0 mm 1 m/S 758 mmHg 90%
23:00 +7°C° 0 mm 2 m/S 758 mmHg 91%

21 Mai, Freitag

Zeit Temperatur Niederschläge Wind Luftdruck Luftfeuchtigkeit
00:00 +7°C° 0 mm 2 m/S 757 mmHg 91%
01:00 +7°C° 0 mm 2 m/S 757 mmHg 92%
02:00 +6°C° 0 mm 2 m/S 757 mmHg 92%
03:00 +6°C° 0 mm 2 m/S 756 mmHg 92%
04:00 +6°C° 0 mm 2 m/S 755 mmHg 92%
05:00 +7°C° 0 mm 3 m/S 755 mmHg 88%
06:00 +9°C° 0 mm 3 m/S 754 mmHg 84%
07:00 +10°C° 0 mm 3 m/S 754 mmHg 80%
08:00 +12°C° 0 mm 4 m/S 753 mmHg 73%
09:00 +13°C° 0 mm 5 m/S 752 mmHg 67%
10:00 +15°C° 0 mm 5 m/S 752 mmHg 61%
11:00 +16°C° 0 mm 5 m/S 751 mmHg 58%
12:00 +16°C° 0 mm 5 m/S 750 mmHg 56%
13:00 +17°C° 0 mm 5 m/S 749 mmHg 53%
14:00 +16°C° 0 mm 5 m/S 748 mmHg 58%
15:00 +17°C° 0 mm 4 m/S 747 mmHg 64%
16:00 +15°C° 0 mm 4 m/S 747 mmHg 69%
17:00 +14°C° 0.8 mm 4 m/S 747 mmHg 77%
18:00 +12°C° 0.8 mm 4 m/S 746 mmHg 85%
19:00 +11°C° 0.8 mm 4 m/S 746 mmHg 93%
20:00 +10°C° 0.2 mm 4 m/S 746 mmHg 93%
21:00 +10°C° 0.2 mm 4 m/S 746 mmHg 94%
22:00 +10°C° 0.2 mm 4 m/S 746 mmHg 94%
23:00 +8°C° 0 mm 4 m/S 745 mmHg 94%
Mehr zeigen

Wir brauchen deine Erlaubnis

Meteoprog und unser Service Anbieter werden persönliche Daten aufbewahren, so wie Cookies, Geräte Bezeichnung oder ähnliche Technologien von deinem Gerät und Prozess, so wie Persönliche Daten Inhalte und Werbungen, genauso wie social Media und den Verkehr zu analysieren.

  • Aufbewahrung und/oder Zugang zu deiner Geräte Informationen.

    Cookies, Geräte Bezeichnung oder andere Informationen, können aufbewahrt oder Zugang zu deinem Gerät erhalten, für den Grund, der oben angegeben wird.

  • Personalisierte Werbung und Inhalte, Messungen, Einblick in das Publikum und Produkt Entwicklung.

    Werbungen und Inhalte können personalisiert werden, basierend auf ein Profil. Mehr Daten können besser personalisierte Werbungen und Inhalte hinzufügen. Werbung und Inhalte können gezeigt und gemessen werden. Einblicke über das Publikum, welche die Werbung gesehen haben und den Inhalt, können abgeleitet werden. So wie Daten können genutzt werden, um es zu verbessern oder die Benutzer Erfahrung zu verbessern das System und die Software.

Wenn du “Ich stimme zu” klickst, erlaubst du uns, die Cookies zu benutzen die Geräte Bezeichnung, den Web oder ähnliche Technologien zu benutzen. Deine Settings, können in deinem Gerät bei deinem Browser geändert werden.

Für den bestimmten Zweck, berechtigten Interessen beruhen darauf, mehr als auf den Inhalt. Du kannst mehr darüber in unseren Privaten und Cookie Politik lesen.